This demonstration page uses our WeatherBlox Daily Observations layout. Learn more.

Left ArrowRight Arrow

Hourly Observations for January 7, 2022

Temp ( °F °C ) Dew Point ( °F °C ) Humidity (%) Winds ( mph kmh ) Pressure ( in mb ) Visibility ( mi km ) Precip ( " mm )
12:52 am 00:52 Cloudy 4 -15.6 -8 -22.2 57 57 NNE 6 9 30.35 1028 10 16 0.00 0.00
1:52 am 01:52 Cloudy 4 -15.6 -8 -22.2 57 57 SSE 3 6 30.34 1027 10 16 0.00 0.00
2:52 am 02:52 Cloudy 5 -15 -7 -21.7 57 57 SSE 6 9 30.35 1028 10 16 0.00 0.00
3:52 am 03:52 Cloudy 6 -14.4 -6 -21.1 57 57 S 6 9 30.34 1028 10 16 0.00 0.00
4:52 am 04:52 Cloudy 6 -14.4 -5 -20.6 60 60 SSE 7 11 30.33 1027 10 16 0.00 0.00
5:52 am 05:52 Cloudy 7 -13.9 -5 -20.6 57 57 SSE 9 15 30.32 1027 10 16 0.00 0.00
6:52 am 06:52 Cloudy 7 -13.9 -4 -20 60 60 SE 12 19 30.31 1026 10 16 0.00 0.00
7:52 am 07:52 Cloudy 9 -12.8 -4 -20 55 55 SSE 14 22 30.29 1026 10 16 0.00 0.00
8:52 am 08:52 Mostly Cloudy 10 -12.2 -3 -19.4 55 55 SSE 14 22 30.30 1026 10 16 0.00 0.00
9:52 am 09:52 Mostly Cloudy 13 -10.6 -1 -18.3 54 54 SSE 16 26 30.28 1026 10 16 0.00 0.00
10:52 am 10:52 Partly Cloudy 14 -10 -1 -18.3 51 51 SSE 20 31 30.28 1025 10 16 0.00 0.00
11:52 am 11:52 Mostly Cloudy 17 -8.3 0 -17.8 47 47 SSE 20 31 30.23 1024 10 16 0.00 0.00
12:52 pm 12:52 Mostly Cloudy 19 -7.2 1 -17.2 45 45 SSE 18 30 30.18 1022 10 16 0.00 0.00
1:52 pm 13:52 Mostly Cloudy 21 -6.1 1 -17.2 41 41 SSE 21 33 30.13 1020 10 16 0.00 0.00
2:52 pm 14:52 Mostly Cloudy 21 -6.1 3 -16.1 45 45 SSE 20 31 30.10 1019 10 16 0.00 0.00
3:52 pm 15:52 Mostly Cloudy 20 -6.7 4 -15.6 50 50 S 20 31 30.07 1018 10 16 0.00 0.00
4:52 pm 16:52 Mostly Cloudy 20 -6.7 4 -15.6 50 50 SSE 16 26 30.07 1018 10 16 0.00 0.00
5:52 pm 17:52 Mostly Cloudy 19 -7.2 4 -15.6 51 51 SSE 15 24 30.05 1018 10 16 0.00 0.00
6:52 pm 18:52 Mostly Cloudy 19 -7.2 5 -15 54 54 SSE 18 30 30.02 1017 10 16 0.00 0.00
7:52 pm 19:52 Mostly Cloudy 19 -7.2 6 -14.4 57 57 SSE 17 28 30.03 1017 10 16 0.00 0.00
8:52 pm 20:52 Partly Cloudy 19 -7.2 6 -14.4 57 57 SSE 17 28 30.02 1017 10 16 0.00 0.00
9:52 pm 21:52 Partly Cloudy 20 -6.7 6 -14.4 55 55 S 17 28 30.00 1016 10 16 0.00 0.00
10:52 pm 22:52 Cloudy 20 -6.7 8 -13.3 60 60 S 24 39 29.98 1015 10 16 0.00 0.00
11:52 pm 23:52 Partly Cloudy 19 -7.2 8 -13.3 62 62 SSE 20 31 29.96 1015 10 16 0.00 0.00

Powered by AerisWeather